小惑星ドン・キホーテ

(3552) Don Quixote (2000)

English version
Home page
Updated on February 20, 2004

---------------------------------------------------------------------

・ プロフィール

・ 軌道要素

Epoch 2002 Nov. 22.0 TT = JDT 2452600.5                 Sumzina
M  78.48767              (2000.0)            P               Q
n   0.11314472     Peri.  316.88992     +0.62295707     +0.77765657
a   4.2336327      Node   350.48317     -0.50254097     +0.31486885
e   0.7131581      Incl.   30.81779     -0.59948066     +0.54415794
P   8.71           H   13.0           G   0.15           U   1
From 69 observations at 6 oppositions, 1983-1998, mean residual 1".09.

・ 光度変化

        H = 13.0  G = 0.15

---------------------------------------------------------------------

軌道要素はMPCのEphemerides and Orbital Elementsに掲載されたものです。
光度グラフはComet for Windowsで作成したものです。

---------------------------------------------------------------------

Copyright(C) Seiichi Yoshida (comet@aerith.net). All rights reserved.